[[{"header":{"parameterUnit":"m.s-1","parameterCategory":1,"la1":30.2991,"la2":30.254,"lo1":-89.0895,"lo2":-89.0444,"dy":0.0017,"dx":0.0017,"nx":28,"ny":28,"refTime":"2023-04-02T21:00:00:Z","depth":0,"parameterNumber":2,"parameterNumberName":"U-component_of_WINDS"},"data":[0,0,0,0,0,0,0,0,0,0,0,0,0,0,0,0,0,0,0,0,0,0,0,0,0,0,0,0,0,0,0,0,0,0,0,0,0,0,0,0,0,0,0,0,0,0,0,0,0,0,0,0,0,0,0,0,0,0,-3.5523,-3.5522,0,-3.5475,-3.5475,-3.5474,-3.5307,-3.5304,-3.53,-3.5296,-3.5253,-3.5255,-3.5258,0,0,0,0,0,0,0,0,0,0,0,0,0,-3.5477,-3.5479,-3.5523,-3.5522,-3.5522,-3.5475,-3.5475,-3.5474,-3.5308,-3.5303,-3.5299,-3.5295,-3.5252,-3.5255,-3.5258,0,0,0,0,0,0,0,0,0,0,0,0,0,-3.547,-3.5479,-3.5523,-3.5433,-3.5425,-3.5476,-3.5475,-3.5474,-3.5309,-3.5303,-3.5298,-3.5292,-3.5251,-3.5255,-3.5258,-3.5394,0,0,-3.5269,-3.5271,0,0,0,0,0,0,0,0,-3.5471,-3.5472,-3.5447,-3.5439,-3.543,-3.5391,-3.5442,-3.5447,-3.5311,-3.5353,-3.5296,-3.529,-3.5304,-3.5303,-3.5307,-3.5392,-3.539,-3.5269,-3.5272,-3.5273,-3.5274,0,0,0,0,0,0,0,-3.5472,-3.5473,-3.5504,-3.5447,-3.5437,-3.5398,-3.539,-3.5443,-3.5361,-3.5349,-3.5337,-3.5333,-3.5298,-3.5304,-3.5304,-3.5389,-3.5269,-3.5273,-3.5275,-3.5276,-3.5587,-3.5593,0,0,0,0,0,0,-3.5484,-3.5475,-3.5506,-3.5503,-3.5437,-3.5403,-3.5395,-3.541,-3.536,-3.5347,-3.5338,-3.5326,-3.53,-3.53,-3.5302,-3.546,-3.5273,-3.5276,-3.5279,-3.5581,-3.5589,-3.5595,0,0,0,0,0,0,-3.5484,-3.5488,-3.5508,-3.5485,-3.5485,-3.541,-3.5428,-3.5412,-3.5416,-3.5352,-3.5337,-3.5358,-3.5296,-3.5297,-3.5373,-3.5456,-3.5278,-3.5281,-3.5574,-3.5584,-3.5592,-3.5775,0,0,0,0,0,0,-3.5483,-3.5489,-3.5538,-3.5488,-3.5487,-3.5577,-3.5433,-3.5415,-3.5423,-3.5406,-3.5366,-3.5355,-3.5291,-3.5368,-3.5376,-3.5458,-3.5284,-3.5566,-3.5578,-3.5589,-3.5761,-3.5789,-3.5814,0,0,0,0,0,-3.5482,-3.5592,-3.5541,-3.5546,-3.5546,-3.5582,-3.5582,-3.5505,-3.543,-3.548,-3.5439,-3.5356,-3.5446,-3.5377,-3.5385,-3.5469,-3.5561,-3.5575,-3.5588,-3.575,-3.5784,-3.5813,0,0,0,0,0,0,-3.5654,-3.5583,-3.5526,-3.5623,-3.561,-3.5554,-3.5614,-3.5544,-3.5553,-3.5537,-3.5444,-3.5436,-3.5526,-3.5505,-3.543,-3.5599,-3.549,-3.5506,-3.561,-3.5642,-3.5667,-3.5671,-3.5287,0,0,0,0,0,-3.5704,-3.5737,-3.5674,-3.5765,-3.5762,-3.569,-3.5703,-3.5645,-3.5628,-3.5623,-3.5586,-3.5576,-3.5601,-3.562,-3.564,-3.5758,-3.5748,-3.5819,-3.5845,-3.5867,-3.5882,-3.5946,-3.5978,-3.5641,-3.5641,-3.564,0,0,-3.5806,-3.5771,-3.5798,-3.5799,-3.5782,-3.5822,-3.5686,-3.5733,-3.5762,-3.563,-3.5699,-3.5673,-3.5655,-3.5753,-3.5794,-3.5738,-3.5974,-3.5885,-3.5903,-3.5906,-3.5964,-3.5996,-3.6024,-3.565,-3.5648,-3.5647,0,0,-3.6012,-3.5988,-3.6063,-3.6049,-3.6025,-3.5977,-3.5996,-3.5951,-3.5928,-3.5996,-3.5899,-3.5934,-3.5979,-3.5971,-3.5973,-3.6181,-3.6106,-3.619,-3.6326,-3.639,-3.6417,-3.644,-3.6516,-3.6545,-3.6205,-3.6206,-3.6206,0,-3.6142,-3.6195,-3.611,-3.6164,-3.6169,-3.6051,-3.6128,-3.6119,-3.6104,-3.6112,-3.6048,-3.6105,-3.6084,-3.618,-3.6231,-3.6236,-3.6257,-3.6194,-3.6419,-3.6442,-3.6462,-3.6534,-3.6563,-3.6216,-3.6215,-3.6214,-3.6213,0,-3.6358,-3.6397,-3.6461,-3.6449,-3.6461,-3.6526,-3.6454,-3.6477,-3.642,-3.638,-3.6452,-3.6424,-3.6437,-3.6455,-3.64,-3.6545,-3.6511,-3.6435,-3.6323,-3.6506,-3.6572,-3.6599,-3.6231,-3.6227,-3.6224,-3.6222,0,0,-3.667,-3.6611,-3.6637,-3.6631,-3.6598,-3.6627,-3.6689,-3.6701,-3.6724,-3.6719,-3.677,-3.6813,-3.6743,-3.6746,-3.6689,-3.6745,-3.6915,-3.6662,-3.666,-3.6712,-3.7077,-3.7135,-3.7168,-3.6865,-3.687,-3.6874,-3.7079,0,-3.6867,-3.6967,-3.6894,-3.7008,-3.7045,-3.6935,-3.6989,-3.6977,-3.6942,-3.697,-3.6932,-3.6965,-3.6869,-3.6871,-3.6921,-3.6883,-3.6987,-3.6867,-3.6915,-3.6917,-3.6924,-3.7202,-3.7263,-3.7458,-3.7104,-3.7108,-3.7111,0,-3.7109,-3.7115,-3.7233,-3.7194,-3.7207,-3.7257,-3.7264,-3.7292,-3.7277,-3.7248,-3.7253,-3.7182,-3.7243,-3.7134,-3.7218,-3.7139,-3.7154,-3.714,-3.7145,-3.7148,-3.7026,-3.7214,-3.7518,-3.7548,-3.7151,-3.7148,-3.7145,0,-3.7328,-3.7364,-3.744,-3.7438,-3.7395,-3.7434,-3.7418,-3.7397,-3.741,-3.7418,-3.7426,-3.7441,-3.745,-3.7465,-3.7402,-3.7327,-3.7497,-3.738,-3.7477,-3.7479,-3.7517,-3.7516,-3.783,-3.7526,-3.7525,-3.7525,-3.7524,0,-3.7556,-3.7633,-3.7538,-3.7584,-3.7669,-3.7586,-3.7672,-3.7645,-3.7629,-3.767,-3.7577,-3.7619,-3.7532,-3.7567,-3.7518,-3.7598,-3.7602,-3.7582,-3.7569,-3.7591,-3.7594,-3.7601,-3.7586,-3.7533,-3.7531,-3.7529,-3.7528,0,-3.7813,-3.7752,-3.7828,-3.7782,-3.7773,-3.7837,-3.7799,-3.7842,-3.7801,-3.7856,-3.7864,-3.7802,-3.7838,-3.7777,-3.7805,-3.7772,-3.7884,-3.7849,-3.7889,-3.7879,-3.798,-3.7972,-3.831,-3.8351,-3.802,-3.8023,-3.8026,0,-3.7963,-3.802,-3.7981,-3.8001,-3.7991,-3.8025,-3.8039,-3.7961,-3.7979,-3.7969,-3.8014,-3.8042,-3.806,-3.8123,-3.8082,-3.8104,-3.807,-3.8187,-3.8072,-3.8095,-3.8074,-3.8072,-3.8079,-3.8211,-3.8215,-3.8218,-3.822,0,-3.8237,-3.8205,-3.8226,-3.824,-3.8258,-3.8265,-3.8265,-3.8288,-3.8206,-3.8232,-3.8267,-3.8281,-3.8311,-3.8341,-3.8354,-3.834,-3.8269,-3.8257,-3.8281,-3.8305,-3.8327,-3.8318,-3.7955,-3.8249,-3.8247,-3.8244,-3.8243,-3.8242,-3.8446,-3.8492,-3.8473,-3.8501,-3.8494,-3.8497,-3.8536,-3.8501,-3.8528,-3.8545,-3.8499,-3.8546,-3.8533,-3.8543,-3.8538,-3.8576,-3.8524,-3.8558,-3.8567,-3.8577,-3.8594,-3.832,-3.8577,-3.8577,-3.8576,-3.8575,-3.8574,0,-3.8716,-3.8699,-3.8726,-3.8729,-3.8754,-3.8683,-3.868,-3.8706,-3.8748,-3.8741,-3.8761,-3.8804,-3.8833,-3.8796,-3.882,-3.8858,-3.8826,-3.8867,-3.8864,-3.8863,-3.8637,-3.8615,-3.8892,-3.8892,-3.8892,-3.8892,-3.8892,-3.8892,-3.8859,-3.8935,-3.8902,-3.8974,-3.8957,-3.9001,-3.9006,-3.901,-3.9005,-3.9056,-3.908,-3.9055,-3.9038,-3.906,-3.9085,-3.9074,-3.9088,-3.9141,-3.9119,-3.8909,-3.8878,-3.8848,-3.8827,-3.9144,-3.9145,-3.9341,-3.9342,-3.9344]},{"header":{"parameterUnit":"m.s-1","parameterCategory":1,"la1":30.2991,"la2":30.254,"lo1":-89.0895,"lo2":-89.0444,"dy":0.0017,"dx":0.0017,"nx":28,"ny":28,"refTime":"2023-04-02T21:00:00:Z","depth":0,"parameterNumber":3,"parameterNumberName":"V-component_of_WINDS"},"data":[0,0,0,0,0,0,0,0,0,0,0,0,0,0,0,0,0,0,0,0,0,0,0,0,0,0,0,0,0,0,0,0,0,0,0,0,0,0,0,0,0,0,0,0,0,0,0,0,0,0,0,0,0,0,0,0,0,0,1.727,1.7271,0,1.7318,1.7319,1.7319,1.7379,1.738,1.7381,1.7382,1.7426,1.7427,1.7427,0,0,0,0,0,0,0,0,0,0,0,0,0,1.7229,1.723,1.727,1.7271,1.7272,1.7318,1.7319,1.7319,1.7379,1.738,1.7381,1.7382,1.7426,1.7427,1.7427,0,0,0,0,0,0,0,0,0,0,0,0,0,1.7259,1.723,1.727,1.7307,1.7311,1.7318,1.7319,1.7319,1.7378,1.738,1.7381,1.7383,1.7426,1.7427,1.7427,1.7401,0,0,1.7428,1.7429,0,0,0,0,0,0,0,0,1.7257,1.726,1.7301,1.7304,1.7309,1.7344,1.7321,1.7346,1.7378,1.7352,1.7382,1.7383,1.7398,1.74,1.7406,1.7403,1.7405,1.7428,1.7429,1.7429,1.7429,0,0,0,0,0,0,0,1.7255,1.7259,1.7289,1.7301,1.7306,1.732,1.7326,1.7326,1.7366,1.7355,1.7359,1.7364,1.74,1.7405,1.7407,1.7405,1.7428,1.7429,1.7429,1.7429,1.7384,1.7383,0,0,0,0,0,0,1.7248,1.7256,1.7288,1.7291,1.7286,1.732,1.7326,1.7331,1.7366,1.7373,1.7363,1.7367,1.7404,1.7407,1.7409,1.7381,1.7429,1.7429,1.7429,1.7385,1.7384,1.7382,0,0,0,0,0,0,1.7247,1.725,1.7286,1.7275,1.728,1.7319,1.7324,1.7331,1.7337,1.7373,1.738,1.7361,1.7405,1.7409,1.7403,1.7383,1.7429,1.743,1.7387,1.7385,1.7383,1.7323,0,0,0,0,0,0,1.7245,1.7249,1.724,1.7274,1.7281,1.7279,1.7323,1.7331,1.7338,1.7343,1.7373,1.7379,1.7407,1.7402,1.7403,1.7385,1.743,1.7389,1.7386,1.7384,1.7327,1.7319,1.7313,0,0,0,0,0,1.7244,1.722,1.7239,1.7242,1.727,1.7277,1.7281,1.7314,1.7336,1.7327,1.735,1.7378,1.7386,1.7401,1.7403,1.7384,1.739,1.7387,1.7384,1.733,1.7321,1.7313,0,0,0,0,0,0,1.718,1.7225,1.7247,1.7234,1.7252,1.7288,1.7276,1.7303,1.7314,1.7318,1.7358,1.7364,1.7354,1.7369,1.7385,1.7361,1.7392,1.7389,1.7351,1.7342,1.7335,1.733,1.7431,0,0,0,0,0,1.7165,1.7169,1.7207,1.7192,1.72,1.7237,1.7241,1.7266,1.7285,1.7293,1.7315,1.7332,1.7339,1.7342,1.7349,1.7331,1.7338,1.7319,1.7312,1.7306,1.7301,1.7293,1.7285,1.7371,1.7371,1.7371,0,0,1.7133,1.7158,1.7157,1.718,1.7197,1.7199,1.7243,1.7242,1.7244,1.7292,1.7288,1.7306,1.7327,1.7315,1.7311,1.7327,1.728,1.7301,1.7296,1.7296,1.7288,1.728,1.7273,1.7369,1.7369,1.737,0,0,1.7075,1.7095,1.7085,1.7102,1.7127,1.7152,1.715,1.7183,1.7197,1.7194,1.7231,1.7233,1.7243,1.7257,1.7265,1.7216,1.7242,1.7218,1.7179,1.717,1.7163,1.7157,1.7138,1.7131,1.7214,1.7214,1.7214,0,1.7032,1.7037,1.7076,1.7074,1.7083,1.713,1.7119,1.7133,1.7159,1.7164,1.7183,1.7197,1.7215,1.7207,1.7195,1.7201,1.7199,1.7213,1.7161,1.7156,1.7151,1.7133,1.7126,1.7211,1.7211,1.7212,1.7212,0,1.6982,1.6985,1.6973,1.6999,1.7007,1.7001,1.7039,1.7042,1.7067,1.709,1.7086,1.711,1.7124,1.7124,1.7147,1.7119,1.7129,1.7154,1.7186,1.7138,1.7123,1.7116,1.7206,1.7207,1.7208,1.7209,0,0,1.6881,1.6932,1.6927,1.694,1.6973,1.6975,1.6972,1.6987,1.6989,1.7006,1.7003,1.7012,1.7036,1.7046,1.7072,1.7064,1.7023,1.709,1.7091,1.7075,1.6993,1.6972,1.6964,1.7042,1.7041,1.704,1.699,0,1.6828,1.6826,1.6862,1.6849,1.6852,1.6898,1.6895,1.6915,1.6937,1.6942,1.6967,1.6972,1.7004,1.701,1.7005,1.7029,1.7006,1.7033,1.7038,1.7037,1.7029,1.6956,1.6934,1.6885,1.6985,1.6984,1.6983,0,1.6765,1.6781,1.6768,1.6804,1.6807,1.6803,1.6821,1.6826,1.6849,1.6866,1.6878,1.6909,1.6907,1.694,1.6938,1.6955,1.696,1.6972,1.6971,1.6971,1.7005,1.6951,1.6871,1.6863,1.6974,1.6975,1.6975,0,1.6692,1.671,1.6705,1.6715,1.6756,1.6753,1.677,1.6795,1.6803,1.6818,1.6823,1.6837,1.6845,1.6855,1.6888,1.6909,1.6882,1.6917,1.6894,1.6893,1.6884,1.6884,1.6801,1.6891,1.6891,1.6891,1.6891,0,1.6627,1.6617,1.6673,1.6669,1.666,1.6703,1.6692,1.6714,1.6736,1.6737,1.6779,1.6779,1.6824,1.6829,1.6855,1.6849,1.6853,1.6865,1.6872,1.686,1.6858,1.6861,1.6865,1.6889,1.6889,1.689,1.689,0,1.6542,1.6579,1.6577,1.6617,1.6628,1.6619,1.6653,1.6651,1.6678,1.6679,1.6681,1.6722,1.673,1.6766,1.6782,1.6799,1.6784,1.6798,1.6776,1.678,1.6754,1.6755,1.6669,1.6659,1.6757,1.6756,1.6755,0,1.6497,1.6491,1.6532,1.6536,1.6552,1.6559,1.6567,1.661,1.6617,1.6645,1.6639,1.6652,1.6663,1.6674,1.6704,1.6717,1.6731,1.67,1.6733,1.6722,1.6728,1.6727,1.6727,1.6692,1.669,1.6689,1.6689,0,1.6412,1.6432,1.6443,1.6461,1.6471,1.6487,1.6505,1.6506,1.6554,1.6559,1.6569,1.6579,1.6597,1.6608,1.6626,1.6643,1.6673,1.6679,1.6674,1.666,1.6647,1.6652,1.6754,1.668,1.668,1.6681,1.6682,1.6682,1.6345,1.6342,1.6371,1.6382,1.6401,1.6418,1.6419,1.6446,1.6456,1.6475,1.65,1.6506,1.6532,1.656,1.6575,1.658,1.6597,1.659,1.6588,1.6585,1.6579,1.6649,1.6584,1.6584,1.6584,1.6584,1.6585,0,1.6261,1.6283,1.6294,1.6319,1.6328,1.6359,1.6382,1.6386,1.6392,1.6415,1.6426,1.6438,1.645,1.6482,1.6497,1.6495,1.6509,1.6497,1.6496,1.6499,1.6563,1.6565,1.6485,1.6485,1.6485,1.6485,1.6485,1.6485,1.6218,1.6215,1.6238,1.6245,1.6267,1.6275,1.6285,1.6301,1.6319,1.6331,1.6341,1.6363,1.639,1.6407,1.6419,1.6428,1.6431,1.6414,1.6427,1.6485,1.6495,1.6504,1.6506,1.6414,1.6414,1.6362,1.6362,1.6362]}]]